User: anonymous   Login
Location: Taukkyan
(23.1052°N, 94.0030°E)
Time: 21:58:33
(UTC+00:00)
Language:

VEP-3 - Orbit

View from above orbital plane
View from above orbital plane
View from above satellite
View from above satellite

Ground track
Ground track

The orbit data is extracted from the following two-line orbital elements,

1 27369U 02003C   20269.15294132 -.00000018 +00000-0 +00000-0 0  9998
2 27369 023.8020 118.0887 6892487 123.9257 320.9266 02.37195251160886
Epoch (UTC): 25 September 2020 03:40:14
Eccentricity: 0.6892487
inclination: 23.8020°
perigee height: 1002 km
apogee height: 33741 km
right ascension of ascending node: 118.0887°
argument of perigee: 123.9257°
revolutions per day: 2.37195251
mean anomaly at epoch: 320.9266°
orbit number at epoch: 16088

The dashed part of the orbit path shows where the satellite is in the earth's shadow,  

DLR